カタログに戻る

SL-8 R/B

運用中UNKNOWN
NORAD 10011·ROCKET BODY·🇷🇺 Russia

打ち上げ May 19, 1977 から Plesetsk Cosmodrome

Loading…

次のパス (今後24時間)

TLE

最新Source: Space-Track

元期: Sep 14, 2026, 12:37 UTC

1 10011U 77036B   26257.52636822 -.00000092  00000-0 -13682-3 0  9998
2 10011  65.8610 280.7638 0700005   1.0020 148.2667 12.32260869197954

AllMySatでSL-8 R/Bをリアルタイム追跡

Download on the App Store